Regional Weather Roundup
Issued by NWS

Home | Current Version | Previous Version | Text Only | Print | Product List | Glossary Off
Versions: 1 2 3 4 5 6 7 8 9 10 11 12 13 14 15 16 17 18 19 20 21 22 23 24 25 26 27 28 29 30 31 32 33 34 35 36 37 38 39 40 41 42 43 44 45 46 47 48 49 50

000
ASUS45 KSLC 291610
RWRUT

UTAH REGIONAL WEATHER ROUNDUP
NATIONAL WEATHER SERVICE SALT LAKE CITY UT
1000 AM MDT FRI APR 29 2016

UTZ001>011-023>025-291700-

NORTHERN UTAH

CITY           SKY/WX    TMP DP  RH WIND       PRES   REMARKS
BRIGHAM CITY   CLOUDY    47  33  56 CALM      29.91S
HILL AFB       CLOUDY    44  33  65 S1        29.90R
LOGAN          PTSUNNY   48  30  49 S9        29.89S
OGDEN          CLOUDY    45  33  63 W3        29.90R
PROVO AIRPORT  PTSUNNY   46  37  71 CALM      29.90R
SALT LAKE CITY PTSUNNY   49  32  52 E6        29.89R
VERNAL         CLOUDY    42  34  73 NE9       29.88S
WENDOVER       MOSUNNY   52  34  50 NW13G21   29.91R
HEBER CITY     MIX PCPN  37  32  81 CALM      29.90R

$$

UTZ012>022-026-027-291700-

SOUTHERN/CENTRAL UTAH

CITY           SKY/WX    TMP DP  RH WIND       PRES   REMARKS
BLANDING       CLOUDY    43  33  65 CALM      29.94S
BRYCE CANYON   CLOUDY    37  31  78 W10G20    29.93R WCI  30
CEDAR CITY     PTSUNNY   46  40  79 CALM      29.93R
DELTA          MOSUNNY   45  41  87 S8        29.91S
MILFORD        MOSUNNY   47  42  83 S5        29.93R
MOAB/CYNLANDS  MOSUNNY   50  39  66 NW7       29.84S
PRICE          CLOUDY    45  33  63 VRB3      29.85S
ST GEORGE      PTSUNNY   54  45  71 CALM      29.94S
KANAB          PTSUNNY   48  45  87 S6        29.96R

$$

REGIONAL REPORTS     COLORADO/ARIZONA

CITY           SKY/WX    TMP DP  RH WIND       PRES   REMARKS
CRAIG, CO      CLOUDY    41  35  79 VRB3      29.86F
GRAND JUNCTION MOSUNNY   46  40  79 NW7       29.85F
RIFLE          CLOUDY    48  37  65 W9        29.83F
MONTROSE       CLOUDY    45  35  68 N7        29.86F
CORTEZ         CLOUDY    44  33  65 W6        29.88R
PAGE, AZ       PTSUNNY   52  42  69 N6        29.88R
GRAND CANYON   CLOUDY    41  37  86 VRB3      29.95R
KINGMAN        SUNNY     56  44  64 CALM      29.95R
FLAGSTAFF      PTSUNNY   40  37  89 SW8       29.95R WCI  34

$$

REGIONAL REPORTS    NEVADA/IDAHO/WYOMING

CITY           SKY/WX    TMP DP  RH WIND       PRES   REMARKS
LAS VEGAS, NV  MOSUNNY   62  42  47 CALM      29.88R
ELY            CLOUDY    43  33  68 NE5       29.97R
ELKO           PTSUNNY   49  36  61 SW8       29.94F
POCATELLO, ID  PTSUNNY   47  35  63 SW8       29.90S
BURLEY         CLOUDY    46  40  79 W14       29.89S
EVANSTON, WY   CLOUDY    33  27  78 E10       29.91R WCI  25
ROCK SPRINGS   LGT SNOW  31  27  85 NE12      29.93S VSB 1   WCI  22
KEMMERER       CLOUDY    32  27  80 E13       29.92  WCI  22

$$



USA.gov is the U.S. government's official web portal to all federal, state and local government web resources and services.